Location: *
(40.9167°N, 9.5000°E)
Time: 02:27:53
(UTC+00:00)

ATLAS 5 CENTAUR R/B - Pass Details

Date: 09 April 2020
Orbit: 241 x 12937 km, 20.2° (Epoch: 05 June)

Event Time Altitude Azimuth Distance (km) Brightness Sun altitude
Rises 18:56:02 0° 209° (SSW) 2,966 4.6 -11.7°
Reaches altitude 10° 18:58:40 10° 184° (S) 2,712 4.1 -12.2°
Maximum altitude 19:02:46 16° 147° (SSE) 3,326 4.3 -12.9°
Enters shadow 19:06:10 14° 128° (SE) 4,338 4.7 -13.5°
